Regional Weather Roundup
Issued by NWS

Home | Current Version | Previous Version | Text Only | Print | Product List | Glossary On
Versions: 1 2 3 4 5 6 7 8 9 10 11 12 13 14 15 16 17 18 19 20 21 22 23 24 25 26 27 28 29 30 31 32 33 34 35 36 37 38 39 40 41 42 43 44 45 46 47 48 49
000
ASUS42 KKEY 200610
RWRKEY

FLORIDA REGIONAL WEATHER ROUNDUP FOR THE FLORIDA KEYS
NATIONAL WEATHER SERVICE KEY WEST FLORIDA
100 AM EST SAT DEC 20 2014

...SOUTH FLORIDA AND THE KEYS...

CITY           SKY/WX    TMP DP  RH WIND       PRES   REMARKS
FORT MYERS     CLEAR     57  53  86 CALM      30.06F
SW REGIONAL AP CLEAR     57  52  83 CALM      30.07S
NAPLES           N/A    N/A N/A N/A NE3       30.05
MIAMI          PTCLDY    65  58  78 E5        30.05F
WEST KENDALL   CLEAR     59  58  96 CALM      30.06F
HOMESTEAD      CLEAR     59  57  94 CALM      30.05F
MARATHON       PTCLDY    72  62  71 SE5       30.04F
BOCA CHICA NAS PTCLDY    69  64  84 E6        30.03F
KEY WEST INTL  PTCLDY    69  64  84 E5        30.04F

...INTERNATIONAL WEATHER...

CITY           SKY/WX    TMP DP  RH WIND       PRES   REMARKS
NASSAU BAHAMAS PTCLDY    66  64  94 CALM      30.06F
CANCUN MEXICO  CLOUDY    77  75  94 SE2       29.96F
COZUMEL MEXICO CLOUDY    72  72 100 S3        29.94F THUNDER

ADJACENT COASTAL WATERS...

STATION/POSITION TIME  SKY/WX   TEMP    WIND        PRES    WAVE
                                AIR SEA DIR/SP/G            HT/PER
                 (UTC)          (F)     (DEG/KT/KT) (MB)    (FT/S)
PULASKI SHOAL LI 0500            71     110/ 14/ 15 1017.0F
SAND KEY         0541            74     130/ 12/ 14 1017.0F
SOMBRERO KEY     0600            74     120/ 11/ 12 1017.8F
LONG KEY         0500            72 69  140/  8/  9 1018.4F
MOLASSES REEF    0600            74 76  130/ 12/ 14 1017.3F
FOWEY ROCKS      NOT AVBL
Buoy 42080       NOT AVBL

$$


USA.gov is the U.S. government's official web portal to all federal, state and local government web resources and services.